Change the Weather History Date:

Wednesday, April 10, 2013

  Actual Average Record
Temperature  
Mean Temperature 68 °F -  
Max Temperature 83 °F 76 °F 92 °F (2011)
Min Temperature 54 °F 50 °F 36 °F (1974)
Cooling Degree Days 3    
Growing Degree Days 18 (Base 50)    
Moisture  
Dew Point 60 °F    
Average Humidity 87    
Maximum Humidity 100    
Minimum Humidity 43    
Precipitation  
Precipitation 0.00 in - - ()
Sea Level Pressure  
Sea Level Pressure 30.10 in    
Wind  
Wind Speed 2 mph (ESE)    
Max Wind Speed 12 mph    
Max Gust Speed 18 mph    
Visibility 8 miles    
Events      
Averages and records for this station are not official NWS values.
T = Trace of Precipitation, MM = Missing Value Source: NWS Daily Summary

Daily Weather History Graph

Daily Weather History Graph

Search for Another Location

Airport or City:

Trip Planner

Search our weather history database for the weather conditions in past years. The results will help you decide how hot, cold, wet, or windy it might be!

Date:

Astronomy

Apr. 10, 2013 Rise Set
Actual Time 7:03 AM EDT 7:52 PM EDT
Civil Twilight 6:38 AM EDT 8:17 PM EDT
Nautical Twilight 6:09 AM EDT 8:46 PM EDT
Astronomical Twilight 5:39 AM EDT 9:16 PM EDT
Moon 7:00 AM EDT (4/10) 8:22 PM EDT (4/10)
Length of Visible Light 13h 38m
Length of Day
12h 48m
New Moon, 0% of the Moon is Illuminated
Apr 10
New Moon
Apr 18
First Quarter
Apr 25
Full
May 2
Last Quarter
May 9
New

Hourly Weather History & Observations

Time (EDT) Temp. Heat Index Dew Point Humidity Pressure Visibility Wind Dir Wind Speed Gust Speed Precip Events Conditions
12:58 AM 61.5 °F - 61.5 °F 100% 30.16 in 10.0 mi Calm Calm - N/A   Clear
1:58 AM 60.6 °F - 60.6 °F 100% 30.14 in 10.0 mi SE 2.3 mph - N/A   Clear
2:58 AM 59.0 °F - 59.0 °F 100% 30.12 in 10.0 mi Calm Calm - N/A   Clear
3:08 AM 59.0 °F - 59.0 °F 100% 30.11 in 2.5 mi East 1.2 mph - N/A   Clear
3:13 AM 59.0 °F - 59.0 °F 100% 30.10 in 1.8 mi SE 2.3 mph - N/A   Clear
3:18 AM 59.0 °F - 59.0 °F 100% 30.10 in 5.0 mi SE 3.5 mph - N/A   Clear
3:23 AM 59.0 °F - 59.0 °F 100% 30.10 in 9.0 mi SE 2.3 mph - N/A   Clear
3:58 AM 57.9 °F - 57.9 °F 100% 30.12 in 10.0 mi Calm Calm - N/A   Clear
4:58 AM 57.6 °F - 57.6 °F 100% 30.12 in 10.0 mi Calm Calm - N/A   Clear
5:28 AM 57.2 °F - 57.2 °F 100% 30.12 in 4.0 mi Calm Calm - N/A   Clear
5:33 AM 57.2 °F - 57.2 °F 100% 30.12 in 4.0 mi Calm Calm - N/A   Clear
5:38 AM 57.2 °F - 57.2 °F 100% 30.11 in 5.0 mi Calm Calm - N/A   Clear
5:43 AM 57.2 °F - 57.2 °F 100% 30.12 in 4.0 mi Calm Calm - N/A   Clear
5:53 AM 57.2 °F - 57.2 °F 100% 30.12 in 5.0 mi Calm Calm - N/A   Clear
5:58 AM 56.7 °F - 56.7 °F 100% 30.13 in 10.0 mi Calm Calm - N/A   Clear
6:03 AM 57.2 °F - 57.2 °F 100% 30.12 in 7.0 mi Calm Calm - N/A   Clear
6:08 AM 55.4 °F - 55.4 °F 100% 30.12 in 2.0 mi Calm Calm - N/A   Clear
6:18 AM 55.4 °F - 55.4 °F 100% 30.11 in 6.0 mi Calm Calm - N/A   Clear
6:23 AM 55.4 °F - 55.4 °F 100% 30.11 in 10.0 mi Calm Calm - N/A   Clear
6:58 AM 54.9 °F - 54.9 °F 100% 30.13 in 10.0 mi NNE 1.2 mph - N/A   Clear
7:58 AM 56.8 °F - 56.8 °F 100% 30.14 in 10.0 mi ENE 1.2 mph - N/A   Clear
8:58 AM 62.6 °F - 62.6 °F 100% 30.15 in 10.0 mi ENE 1.2 mph - N/A   Clear
9:58 AM 70.9 °F - 64.0 °F 79% 30.17 in 10.0 mi Variable 5.8 mph - N/A   Clear
10:58 AM 75.4 °F - 60.4 °F 60% 30.17 in 10.0 mi South 9.2 mph - N/A   Clear
11:58 AM 77.4 °F - 60.1 °F 55% 30.16 in 10.0 mi Variable 4.6 mph - N/A   Partly Cloudy
12:58 PM 79.2 °F - 58.8 °F 50% 30.14 in 10.0 mi East 3.5 mph - N/A   Partly Cloudy
1:58 PM 80.6 °F 81.1 °F 59.4 °F 48% 30.11 in 10.0 mi SE 11.5 mph - N/A   Clear
2:58 PM 82.8 °F 82.5 °F 58.3 °F 43% 30.09 in 10.0 mi SSE 10.4 mph - N/A   Clear
3:58 PM 82.8 °F 83.0 °F 59.9 °F 46% 30.07 in 10.0 mi SE 9.2 mph 18.4 mph N/A   Clear
4:58 PM 81.7 °F 82.3 °F 61.0 °F 49% 30.05 in 10.0 mi SSE 8.1 mph - N/A   Clear
5:58 PM 79.7 °F - 61.3 °F 53% 30.04 in 10.0 mi SSE 9.2 mph - N/A   Clear
6:58 PM 76.8 °F - 62.6 °F 61% 30.05 in 10.0 mi SSE 10.4 mph - N/A   Clear
7:58 PM 72.5 °F - 64.2 °F 75% 30.06 in 10.0 mi ESE 8.1 mph - N/A   Clear
8:43 PM 69.8 °F - 64.4 °F 83% 30.04 in 8.0 mi ESE 5.8 mph - N/A   Clear
8:58 PM 67.8 °F - 64.2 °F 88% 30.05 in 7.0 mi ESE 5.8 mph - N/A   Clear
9:58 PM 65.8 °F - 64.0 °F 94% 30.04 in 6.0 mi ESE 5.8 mph - N/A   Clear
10:13 PM 66.2 °F - 64.4 °F 94% 30.03 in 9.0 mi ESE 4.6 mph - N/A   Clear
10:58 PM 64.9 °F - 64.9 °F 100% 30.04 in 10.0 mi ESE 4.6 mph - N/A   Clear
11:58 PM 64.2 °F - 64.2 °F 100% 30.02 in 10.0 mi ESE 3.5 mph - N/A   Clear